GFSNE_prec_cthk_123.txt.gz
RH
85 82 94 67 58 58 57 58 57 61 63 67 80 72 69 75 71 67 62 65 55 45 44 58 64 73 88 98 96 87 57 40 44 35 36 39 41 37
86 91 86 71 65 60 57 59 59 62 63 67 75 76 78 72 75 75 70 67 59 49 45 49 59 65 79 91 98 97 88 60 48 45 41 46 48 47
93 76 58 60 58 63 59 62 64 62 65 71 81 82 88 76 77 77 75 70 61 51 49 53 56 63 66 76 94 98 96 88 61 53 48 48 53 51
89 72 57 59 54 60 59 62 65 70 73 74 84 92 94 87 77 76 66 72 66 58 58 60 57 56 59 65 81 97 97 94 81 67 58 54 58 56
85 74 62 61 63 66 69 62 67 71 76 75 79 84 92 89 75 64 64 68 66 63 59 59 58 57 58 58 66 84 95 95 90 74 66 64 67 64
80 80 69 65 62 70 75 67 65 70 76 78 80 86 86 78 76 70 73 68 66 68 54 54 58 57 60 60 66 74 81 93 98 97 94 88 73 69
90 77 65 65 67 71 80 77 79 82 82 81 83 84 85 79 81 79 77 69 62 59 53 52 59 56 60 63 63 73 80 87 95 96 91 78 73 72
89 84 71 82 80 84 78 79 82 85 86 89 91 89 90 79 72 71 72 71 69 64 60 57 59 61 66 67 69 79 73 89 97 99 98 96 88 81
96 92 97 81 87 84 85 83 85 86 92 97 94 95 90 89 75 72 68 68 71 72 64 64 61 63 64 71 77 84 77 82 92 99 98 98 97 91
98 98 93 94 95 84 87 91 87 92 93 98 97 95 93 92 87 79 78 70 72 75 73 69 70 66 61 68 82 91 85 79 83 98 99 99 98 95
98 97 96 94 98 98 87 92 96 99 99 98 99 97 94 93 90 87 82 76 75 76 74 75 72 70 69 68 84 94 94 86 80 96 99 98 99 98
98 98 97 96 89 98 97 97 96 97 98 96 98 98 96 94 95 92 90 86 83 82 78 78 74 71 70 67 72 93 94 88 78 85 92 97 99 99
67 72 77 84 93 96 96 98 98 97 96 97 98 96 95 94 92 92 94 95 95 90 85 82 79 76 73 72 70 74 94 95 90 85 87 88 93 99
45 49 51 54 58 61 67 76 84 88 91 96 97 97 97 98 98 98 98 98 99 97 94 88 83 81 78 74 74 74 80 94 98 97 96 93 91 95
33 41 45 46 48 49 49 50 54 58 63 70 76 83 87 92 96 97 97 97 97 98 96 93 89 87 82 79 77 76 78 85 96 98 98 97 95 94
13 16 19 23 27 32 38 42 48 52 51 50 53 57 64 68 74 78 81 86 90 90 89 88 89 91 90 87 85 80 81 82 87 95 98 97 97 97
9 9 8 9 10 12 16 22 32 37 40 44 50 54 49 50 54 59 61 66 68 70 75 79 83 86 88 90 90 91 88 88 88 87 95 98 97 97
9 9 11 12 13 14 14 15 15 17 23 29 35 40 44 53 54 50 50 51 50 53 56 61 69 80 86 87 88 89 93 91 91 93 90 92 96 97
10 13 14 14 15 15 16 17 17 17 18 19 24 28 30 33 39 45 53 54 53 54 55 54 54 59 69 78 86 88 91 94 94 93 93 93 94 96
15 17 18 15 14 15 17 17 17 18 18 18 19 22 28 30 31 36 41 44 50 55 56 58 59 60 62 64 69 78 87 90 93 94 95 95 94 93
17 17 19 19 18 17 16 17 18 18 19 20 21 23 24 26 28 30 33 41 47 53 53 54 56 60 64 65 66 70 77 82 88 92 94 96 97 97
20 20 20 19 19 19 18 18 18 18 17 19 22 24 25 27 29 29 28 28 35 45 55 58 61 63 64 64 66 68 72 76 79 85 91 95 96 97
24 24 24 22 22 21 19 18 18 18 18 19 24 26 28 29 31 31 32 30 31 29 31 50 62 66 67 68 70 72 76 76 76 78 84 87 91 95

GFSNE_prec_cthk_129.txt.gz
RH
54 67 82 83 90 92 89 92 93 92 87 71 63 58 57 62 63 64 64 73 78 81 72 68 63 60 58 49 48 66 83 87 95 88 78 60 44 37
38 48 57 73 72 76 87 85 88 91 97 80 65 67 67 63 64 62 64 67 75 81 76 72 71 70 62 55 48 50 61 68 77 89 91 90 78 56
34 37 45 52 66 69 74 84 82 84 87 84 79 79 68 62 62 61 67 68 74 79 78 78 78 78 70 60 53 49 51 57 62 67 75 83 91 90
44 45 47 44 54 58 65 70 74 78 88 85 88 85 76 69 70 68 67 66 74 78 80 84 84 87 80 67 60 51 52 56 58 64 68 71 81 89
38 47 50 54 50 52 57 61 65 76 87 88 88 85 79 78 77 73 71 74 76 77 76 82 86 85 84 71 64 59 55 56 60 61 63 65 70 74
47 44 45 48 52 56 59 59 57 60 66 73 82 92 83 80 79 76 77 75 72 75 74 76 80 86 85 75 65 63 62 59 57 56 58 60 60 66
59 45 43 43 44 51 55 54 54 52 64 72 78 82 81 78 74 76 76 78 76 82 84 77 79 84 82 73 65 64 65 62 56 56 57 59 61 63
72 59 45 44 50 49 52 53 48 49 58 61 73 83 87 86 80 81 78 79 85 87 86 81 79 81 82 77 69 69 68 64 60 57 57 58 63 63
68 63 59 59 61 53 54 53 57 78 85 81 83 86 91 89 94 84 82 83 85 85 85 82 84 83 80 80 76 72 69 65 66 65 61 63 64 62
73 69 69 70 71 63 63 71 71 77 90 78 81 87 88 88 96 92 82 87 92 89 86 83 90 90 80 76 72 68 70 68 70 71 68 66 70 65
88 91 92 95 82 82 83 92 85 86 87 96 97 99 97 98 96 98 94 98 98 86 99 85 92 91 89 80 75 71 70 73 73 72 73 70 69 68
79 88 91 94 96 97 98 98 97 99 99 96 98 98 98 97 99 97 98 99 94 98 92 94 94 94 91 88 86 85 81 79 78 76 72 70 69 65
26 31 42 50 53 61 72 83 89 93 91 93 93 97 98 98 98 98 98 99 96 97 97 96 93 96 94 93 93 92 88 83 83 81 78 73 71 67
10 16 20 22 29 37 40 44 48 53 58 65 77 82 84 84 85 90 94 98 97 97 98 96 96 92 92 93 91 92 93 90 88 87 84 78 74 71
10 10 8 8 9 12 18 23 24 27 30 33 38 43 49 54 63 70 78 82 87 88 92 94 94 96 94 92 90 91 90 91 91 90 90 85 80 77
10 9 8 8 8 7 7 7 9 13 17 19 20 23 28 31 35 41 46 52 60 66 73 78 82 83 89 90 90 92 94 93 91 90 90 90 87 86
10 9 8 8 8 8 8 8 8 8 8 9 9 10 11 12 14 17 23 28 34 41 49 57 60 63 68 72 76 81 87 89 89 89 92 93 91 91
10 10 10 10 9 9 8 8 8 8 9 10 10 11 12 12 12 13 14 16 18 22 27 34 41 49 54 56 59 64 69 73 75 79 83 85 87 88
12 13 13 13 12 11 10 9 8 8 9 9 10 12 13 14 14 14 14 14 14 18 23 24 26 29 36 47 52 56 60 64 68 71 71 70 74 81
14 15 15 15 15 14 13 11 11 10 9 8 9 13 14 16 16 16 17 18 17 16 17 25 27 28 31 35 39 44 52 60 62 65 69 74 74 73
18 17 16 16 16 17 16 15 14 13 12 11 10 12 16 16 17 18 18 19 21 20 19 19 26 30 34 37 40 41 45 50 55 59 64 67 71 74
23 23 22 20 18 17 16 17 17 16 16 15 13 14 17 20 20 20 21 21 21 23 24 24 21 26 34 40 42 45 49 52 54 58 62 64 65 65
26 26 26 25 23 21 20 20 20 21 21 20 18 17 19 21 22 24 25 25 24 23 25 27 27 26 30 40 44 50 53 54 56 59 63 66 69 71

GFSNE_prec_cthk_132.txt.gz
RH
47 45 52 61 86 98 94 88 96 98 92 91 83 79 80 74 69 63 62 65 72 72 74 80 77 74 69 62 61 61 51 61 92 92 87 86 72 57
48 55 58 58 62 70 82 92 94 89 90 81 77 79 81 81 75 69 60 63 66 74 73 80 79 76 73 68 68 66 59 50 58 71 87 92 92 87
43 48 50 48 48 52 61 70 82 80 77 70 69 72 83 88 89 78 67 63 66 69 71 75 75 78 79 76 76 76 67 58 50 54 61 65 74 82
45 41 46 50 44 51 52 56 56 59 69 61 60 69 78 80 78 73 69 65 64 63 72 76 76 80 82 81 81 86 82 67 57 51 56 58 61 66
45 46 45 44 49 51 49 54 53 56 58 62 59 70 76 80 82 74 69 69 68 69 69 70 73 85 90 88 90 91 91 80 66 54 53 56 57 62
56 50 47 47 47 52 53 62 65 64 66 66 64 68 69 75 77 74 77 77 78 80 77 74 73 74 79 80 87 86 89 88 75 64 59 58 59 63
70 73 69 59 54 54 61 63 67 68 64 65 69 69 68 67 65 76 84 87 87 84 83 78 78 75 74 79 78 84 87 89 83 66 63 62 61 61
76 82 84 89 81 66 66 68 66 79 81 74 69 70 66 67 69 84 89 90 95 90 83 82 81 77 78 82 80 83 90 89 84 76 66 65 66 62
80 81 84 86 83 75 62 53 51 55 57 63 66 69 68 77 76 82 82 89 89 92 91 88 85 84 85 88 85 83 84 85 84 77 73 69 69 65
96 93 84 82 80 77 73 67 65 59 57 60 59 61 67 69 89 80 75 88 82 88 90 95 92 88 88 84 84 89 88 84 82 80 79 74 71 68
84 92 94 87 83 79 77 75 74 70 65 66 67 71 81 85 81 92 98 93 93 90 92 98 95 91 93 86 83 89 92 94 91 83 79 75 70 70
28 35 52 70 77 86 91 96 86 87 82 87 83 78 79 90 89 91 94 95 96 98 98 98 99 99 97 95 89 95 92 95 95 90 81 75 72 72
10 17 21 25 29 38 48 56 74 81 88 96 97 95 94 94 94 93 98 96 97 98 98 98 98 98 98 98 98 94 96 97 96 95 88 83 80 79
9 9 9 13 18 17 21 24 30 36 39 43 50 63 78 86 91 94 97 96 97 97 97 96 98 98 97 98 98 96 97 96 98 96 95 94 93 89
10 10 9 9 9 9 10 13 15 17 20 23 28 32 34 38 43 50 63 78 86 89 92 94 96 97 97 97 97 98 97 97 95 93 95 96 95 92
11 10 10 10 10 9 9 8 8 8 9 13 18 20 22 24 24 23 25 28 39 48 54 67 78 84 88 89 92 93 94 96 96 95 93 93 90 90
11 11 10 10 10 10 10 9 9 8 8 8 8 8 10 13 14 17 20 19 17 20 24 29 35 39 49 61 69 74 78 83 88 92 94 93 89 91
10 10 11 11 12 12 11 11 10 10 10 9 9 9 10 10 10 11 11 12 12 13 14 15 16 21 26 32 38 45 53 58 61 67 74 79 83 86
12 13 13 12 12 12 13 13 12 12 11 10 10 10 11 12 13 13 13 13 12 13 14 14 17 18 19 21 26 29 32 39 47 55 59 61 63 66
19 20 18 17 15 15 14 14 14 14 13 12 12 11 11 12 14 15 16 16 15 15 14 16 16 19 25 26 26 28 32 33 37 41 45 51 58 61
25 24 23 22 21 20 19 18 16 15 15 15 14 13 13 13 13 15 16 17 18 17 16 16 20 20 22 27 29 31 33 36 37 39 42 46 49 54
28 27 29 29 29 27 24 22 20 19 18 18 18 18 17 16 16 17 18 18 19 19 18 17 20 23 22 24 29 32 36 39 42 45 48 49 50 52
29 31 32 34 33 32 29 26 24 23 21 21 21 22 22 21 20 20 21 22 22 21 21 18 19 27 28 27 29 35 41 42 45 50 52 52 53 54

GFSNE_prec_cthk_138.txt.gz
RH
44 42 38 37 37 44 67 74 75 68 66 61 72 86 93 94 98 86 78 74 71 69 68 68 66 70 76 75 84 81 82 78 73 68 61 58 73 92
53 49 45 41 39 45 52 67 78 73 82 60 76 88 89 90 97 89 83 82 75 73 74 72 68 62 69 72 80 83 85 86 79 73 65 63 57 64
56 52 51 47 45 51 57 65 80 72 77 82 79 90 92 92 90 93 90 84 78 75 78 76 73 70 65 70 75 79 80 83 83 79 75 67 66 59
63 58 54 51 45 47 49 65 89 98 83 83 82 78 91 97 90 94 87 80 83 82 80 85 79 79 72 69 70 76 78 79 82 78 79 77 73 71
67 65 61 55 53 50 56 56 60 86 94 87 94 97 91 91 95 92 87 81 80 80 77 82 83 84 80 75 71 74 75 76 78 80 83 80 80 80
71 69 68 67 64 56 56 54 60 72 85 89 98 99 95 99 98 96 93 84 81 79 83 88 89 91 88 82 72 73 74 71 77 79 83 83 82 86
86 82 82 82 72 73 67 63 59 66 80 90 95 94 85 86 87 90 91 85 80 89 88 92 90 97 87 88 78 77 78 73 71 82 86 89 88 89
96 92 91 88 87 87 80 74 68 61 64 61 75 77 84 89 88 95 92 88 86 78 88 92 96 94 95 89 83 78 84 88 77 78 90 90 92 91
80 90 90 91 88 87 90 81 80 77 70 76 88 74 81 93 92 90 89 93 93 79 79 83 85 83 84 86 91 90 75 85 86 84 88 92 92 90
26 35 47 55 65 73 78 73 77 87 90 83 75 69 79 91 83 91 85 84 83 80 78 82 94 79 76 80 88 92 85 83 89 92 92 89 90 88
8 8 11 14 19 25 36 55 64 67 78 81 84 81 72 63 63 67 78 79 82 81 80 81 86 80 90 75 82 85 90 95 93 95 97 97 91 90
8 8 8 8 8 8 11 15 19 27 37 45 58 67 71 74 72 66 68 73 85 82 80 81 79 79 81 76 92 88 93 98 99 99 96 97 99 97
8 8 7 7 7 7 7 8 8 10 13 17 20 28 39 45 49 55 63 67 70 74 74 74 78 83 80 79 86 88 94 98 99 99 99 98 99 99
9 9 8 7 7 7 7 7 7 7 8 8 11 12 14 22 31 36 43 46 49 53 56 63 74 80 81 80 87 91 93 96 97 98 95 97 99 99
10 10 9 9 9 8 8 8 8 8 8 8 10 14 16 15 16 18 25 30 43 41 45 46 45 48 62 73 82 82 84 89 95 97 97 98 97 98
15 15 13 13 11 11 10 9 9 10 11 11 10 10 10 13 17 18 19 19 29 33 33 35 41 50 41 44 54 65 76 88 91 95 97 97 97 97
25 25 24 23 23 23 22 21 17 14 16 18 20 16 15 16 16 17 18 18 18 18 24 27 28 39 47 47 45 46 55 58 66 75 78 85 92 96
31 29 28 27 26 25 25 24 24 23 23 23 23 22 22 21 21 19 19 19 18 17 17 18 20 26 36 48 45 45 51 48 47 52 61 66 69 71
31 30 29 28 28 27 25 25 24 24 24 25 25 24 23 23 23 22 23 21 19 18 19 20 19 21 22 32 37 38 42 44 47 45 47 48 55 60
31 30 29 30 30 30 31 28 31 28 26 26 27 26 25 26 30 29 30 25 25 27 26 26 26 26 22 24 29 30 33 30 40 47 49 46 43 44
33 31 30 29 29 30 29 30 32 36 34 34 34 33 29 31 33 33 33 31 29 31 30 29 29 23 25 29 31 35 37 30 27 30 37 46 48 42
34 32 31 30 29 28 30 30 32 37 37 36 35 35 34 35 34 34 34 34 33 32 31 30 30 30 30 33 38 38 38 38 31 30 32 35 38 44
35 32 31 31 31 33 32 31 30 30 32 37 37 37 37 37 37 37 36 36 36 35 34 33 33 33 32 34 40 40 41 41 39 36 39 36 39 41